Regional Weather Roundup
Issued by NWS

Home | Current Version | Previous Version | Graphics & Text | Print | Product List | Glossary On
Versions: 1 2 3 4 5 6 7 8 9 10 11 12 13 14 15 16 17 18 19 20 21 22 23 24 25 26 27 28 29 30 31 32 33 34 35 36 37 38 39 40 41 42 43 44 45 46 47 48 49 50
000
ASUS43 KLSX 261510
RWRMO

WEATHER SUMMARY FOR MISSOURI
NATIONAL WEATHER SERVICE SPRINGFIELD MO
1000 AM CDT WED JUL 26 2017

NOTE: "FAIR" INDICATES FEW OR NO CLOUDS BELOW 12,000 FEET WITH NO
       SIGNIFICANT WEATHER AND/OR OBSTRUCTIONS TO VISIBILITY.
       CURRENT SKY AND/OR WEATHER CONDITIONS ARE NOT AVAILABLE FOR
       CHILLICOTHE AND FARMINGTON.

MOZ001>031-035>038-043-044-053-054-261600-
...NORTHERN AND WESTERN MISSOURI...

CITY           SKY/WX    TMP DP  RH WIND       PRES   REMARKS
KANSAS CTY INT CLOUDY    79  75  87 W5        30.06R
KANSAS C DTWN  CLOUDY    83  74  74 W7        30.04R
LEE`S SUMMIT   CLOUDY    80  75  84 SW9       30.05R
ST JOSEPH      RAIN      76  76 100 NW5       30.05R FOG
CHILLICOTHE      N/A     79  75  87 S3        30.04R
KIRKSVILLE     CLOUDY    81  73  76 SW5       30.04F

$$
MOZ066>068-077>081-088>096-101>105-261600-
...SOUTHWEST MISSOURI...

CITY           SKY/WX    TMP DP  RH WIND       PRES   REMARKS
SPRINGFIELD    MOSUNNY   86  72  62 SW10      30.10R HX  92
JOPLIN         CLOUDY    88  74  63 SW15      30.07R HX  96
BRANSON        CLOUDY    86  72  62 SW5       30.12S HX  92

$$
MOZ032>034-039>042-045>050-055>058-069>072-261600-
...CENTRAL MISSOURI...

CITY           SKY/WX    TMP DP  RH WIND       PRES   REMARKS
COLUMBIA       CLOUDY    85  74  69 W8        30.06R HX  92
JEFFERSON CITY CLOUDY    87  76  69 SW10      30.04S HX  97
ROLLA          CLOUDY    84  74  71 SW6       30.10R HX  91
SEDALIA        PTSUNNY   85  77  77 SW12      30.06S HX  95
WHITEMAN AFB   CLOUDY    84  77  81 SW13      30.04R HX  94
OSAGE BEACH    MOSUNNY   87  73  62 SW8       30.08R HX  94

$$
MOZ051-052-059>065-261600-
...EAST CENTRAL MISSOURI...

CITY           SKY/WX    TMP DP  RH WIND       PRES   REMARKS
ST LOUIS INTL  MOSUNNY   89  74  60 SW7       30.05S HX  98
SPIRIT OF STL  MOSUNNY   87  74  64 VRB6      30.03F HX  95
ST CHARLES     SUNNY     84  75  74 S6        30.04R HX  92

$$
MOZ072>076-082>087-097>100-106>115-261600-
...SOUTH CENTRAL AND SOUTHEAST MISSOURI...

CITY           SKY/WX    TMP DP  RH WIND       PRES   REMARKS
CAPE GIRARDEAU SUNNY     87  78  74 VRB5      30.06S HX 100
FARMINGTON     MOSUNNY   89  75  63 SW7       30.08F HX  99
POPLAR BLUFF   SUNNY     85  79  82 SW6       30.06S HX  98
WEST PLAINS    SUNNY     87  72  60 SW7       30.12F HX  93

$$



USA.gov is the U.S. government's official web portal to all federal, state and local government web resources and services.